www.pogodaiklimat.ru

Погода и климат >> Архив погоды >> Австралия >> Южная Австралия >> Мумба


ПОГОДА в Мумбе

  • Прогноз погоды в Мумбе
  • Монитор погоды в Мумбе

АРХИВ ПОГОДЫ в Мумбе

Время (UTC), дата Ветер
(напр.,м/с)
 
Видим.   Явления Облачность Т
(С)
Тd
(С)
f
(%)
Тe
(С)
Тes
(С)
Комфортность P
(гПа)
Po
(гПа)
Тmin
(С)
Tmax
(С)
R
(мм)
R24
(мм)
S
(см)
13 16.05 ЮВ 4 н/о н/о +18.6 +5.1 41 +19 +19 1022.1 1017.5
14 16.05 ЮВ 4 н/о н/о +17.6 +5.2 44 +17 +17 1021.6 1017.0 +26.4
15 16.05 ЮВ 4 н/о н/о +16.8 +5.1 46 +16 +16 1021.3 1016.7
16 16.05 ЮВ 5 н/о н/о +16.2 +5.2 48 +15 +15 1021.0 1016.4
17 16.05 ЮВ 5 н/о н/о +15.8 +5.1 49 +15 +15 1020.6 1016.0
18 16.05 ЮВ 4 н/о н/о +15.7 +5.0 49 +15 +15 1020.5 1015.9
19 16.05 ЮВ 4 н/о н/о +15.2 +4.9 50 +14 +14 1020.6 1016.0
20 16.05 ЮВ 3 н/о н/о +14.6 +4.9 52 +14 +14 1020.7 1016.1
21 16.05 ЮВ 3 н/о н/о +14.4 +5.0 53 +14 +14 1021.1 1016.5
22 16.05 ЮВ 3 н/о н/о +15.3 +5.0 50 +15 +15 1021.6 1017.0
23 16.05 В 3 н/о 5/0 2000 м
[]
+17.3 +6.2 48 +17 +17 1022.0 1017.4
00 17.05 В 5 н/о н/о +19.6 +8.0 47 +20 +20 1022.2 1017.6
01 17.05 СВ 5 н/о н/о +23.7 +10.4 43 +25 +25 комфорт 1021.7 1017.1
02 17.05 СВ 4 н/о н/о +26.2 +11.2 39 +27 +27 жарко 1020.9 1016.3 +13.9
03 17.05 СВ 4 н/о н/о +27.6 +11.6 37 +29 +29 жарко 1019.8 1015.2
04 17.05 СЗ 2 н/о н/о +27.8 +10.9 35 +29 +29 жарко 1019.0 1014.4
05 17.05 В 2 н/о 5/0 2000 м
[]
+28.2 +10.9 34 +29 +29 жарко 1018.4 1013.8
06 17.05 штиль 0 н/о н/о +27.7 +10.9 35 +28 +28 жарко 1018.4 1013.8
07 17.05 ЮВ 2 н/о н/о +27.3 +10.9 36 +28 +28 жарко 1018.6 1014.0
08 17.05 В 3 н/о н/о +25.4 +10.1 38 +26 +26 жарко 1019.3 1014.7
09 17.05 ЮВ 3 н/о н/о +23.8 +10.1 42 +25 +25 комфорт 1019.8 1015.2
10 17.05 В 3 н/о н/о +21.3 +9.2 46 +23 +23 комфорт 1020.5 1015.9
11 17.05 ЮВ 3 н/о 8/0 2000 м
[]
+20.3 +8.9 48 +22 +22 комфорт 1021.1 1016.5
12 17.05 В 4 н/о н/о +20.4 +9.0 48 +22 +22 комфорт 1021.3 1016.7
13 17.05 В 4 н/о н/о +19.7 +9.6 52 +21 +21 комфорт 1021.3 1016.7
14 17.05 В 4 н/о 1/0 2000 м
[]
+19.2 +10.2 56 +20 +20 1021.2 1016.6 +28.4
15 17.05 В 4 н/о н/о +18.5 +10.6 60 +19 +19 1020.8 1016.2
16 17.05 В 3 н/о н/о +17.8 +10.7 63 +18 +18 1020.7 1016.1
17 17.05 В 3 н/о н/о +16.5 +10.1 66 +16 +16 1020.3 1015.7
18 17.05 В 3 н/о н/о +16.1 +10.4 69 +16 +16 1020.0 1015.4
19 17.05 В 3 н/о н/о +15.6 +10.2 70 +15 +15 1020.4 1015.8
20 17.05 В 4 н/о н/о +15.0 +10.2 73 +14 +14 1020.7 1016.1
21 17.05 СВ 3 н/о н/о +16.3 +11.0 71 +16 +16 1021.1 1016.5
22 17.05 СВ 3 н/о н/о +18.4 +11.5 64 +19 +19 1022.1 1017.5
23 17.05 СВ 4 н/о н/о +21.9 +12.2 54 +24 +24 комфорт 1023.0 1018.4
00 18.05 СВ 6 н/о н/о +24.3 +11.6 45 +26 +26 жарко 1023.4 1018.8
01 18.05 СВ 6 н/о н/о +26.6 +11.1 38 +28 +28 жарко 1023.1 1018.5
02 18.05 СВ 7 н/о 1/0
[]
+28.9 +10.6 32 +29 +29 жарко 1021.9 1017.3 +15.0
03 18.05 СВ 6 н/о н/о +29.9 +10.5 30 +30 +30 жарко 1021.1 1016.5
04 18.05 СВ 5 н/о н/о +29.7 +9.8 29 +30 +30 жарко 1020.6 1016.0
05 18.05 С 5 н/о 4/0 2000 м
[]
+29.5 +9.1 28 +29 +29 жарко 1020.2 1015.6
06 18.05 СВ 5 н/о н/о +29.8 +9.3 28 +29 +29 жарко 1020.1 1015.5
07 18.05 В 5 н/о н/о +28.8 +9.0 29 +29 +29 жарко 1020.3 1015.7
08 18.05 В 5 н/о 10/0 2000 м
[]
+27.5 +8.9 31 +28 +28 жарко 1020.7 1016.1
09 18.05 СВ 4 н/о н/о +26.0 +8.9 34 +26 +26 жарко 1021.4 1016.8
10 18.05 В 4 н/о н/о +24.8 +8.7 36 +25 +25 комфорт 1021.9 1017.3
11 18.05 СВ 4 н/о 10/0
[]
+24.5 +8.9 37 +25 +25 комфорт 1022.1 1017.5
12 18.05 В 4 н/о н/о +22.6 +9.0 42 +24 +24 комфорт 1021.9 1017.3
13 18.05 В 5 н/о н/о +23.0 +9.0 41 +24 +24 комфорт 1022.0 1017.4
14 18.05 В 5 н/о 9/0
[]
+22.5 +8.6 41 +24 +24 комфорт 1021.9 1017.3 +30.9
15 18.05 В 4 н/о н/о +22.4 +8.1 40 +24 +24 комфорт 1021.5 1016.9
16 18.05 В 3 н/о н/о +21.6 +7.8 41 +23 +23 комфорт 1021.8 1017.2
17 18.05 В 4 н/о 9/0 2000 м
[]
+20.9 +7.9 43 +22 +22 комфорт 1021.6 1017.0
18 18.05 В 2 н/о н/о +19.8 +7.5 45 +21 +21 комфорт 1021.8 1017.2
19 18.05 В 3 н/о н/о +19.5 +7.9 47 +21 +21 комфорт 1022.0 1017.4
20 18.05 В 3 н/о 10/0
[]
+19.0 +8.1 49 +20 +20 1022.2 1017.6
21 18.05 В 4 н/о н/о +19.8 +9.1 50 +21 +21 комфорт 1022.6 1018.0
22 18.05 СВ 5 н/о н/о +20.9 +9.5 48 +22 +22 комфорт 1022.7 1018.1
23 18.05 СВ 6 н/о 3/0
[]
+22.3 +10.1 46 +24 +24 комфорт 1022.9 1018.3
00 19.05 СВ 7 н/о н/о +24.9 +10.4 40 +26 +26 жарко 1023.3 1018.7
01 19.05 СВ 7 н/о н/о +27.2 +10.8 36 +28 +28 жарко 1022.7 1018.1
02 19.05 С 7 н/о 9/0
[]
+27.6 +11.2 36 +28 +28 жарко 1021.8 1017.2 +18.9
03 19.05 С 6 н/о н/о +29.2 +10.3 31 +29 +29 жарко 1020.8 1016.2
04 19.05 СВ 6 н/о н/о +28.6 +9.3 30 +29 +29 жарко 1020.2 1015.6
05 19.05 С 6 н/о 5/0
[]
+29.6 +8.6 27 +29 +29 жарко 1019.6 1015.0
06 19.05 С 4 н/о н/о +29.6 +9.7 29 +29 +29 жарко 1019.5 1014.9
07 19.05 С 4 н/о н/о +28.3 +10.0 32 +29 +29 жарко 1019.7 1015.1
08 19.05 СВ 5 н/о 6/0 2000 м
[]
+27.1 +10.3 35 +28 +28 жарко 1020.0 1015.4
09 19.05 СВ 5 н/о н/о +25.4 +10.4 39 +26 +26 жарко 1020.5 1015.9
10 19.05 С 5 н/о н/о +24.7 +10.9 42 +26 +26 жарко 1021.2 1016.6
11 19.05 С 4 н/о н/о +23.0 +10.4 45 +25 +25 комфорт 1021.6 1017.0
12 19.05 С 3 н/о н/о +21.9 +10.4 48 +24 +24 комфорт 1022.1 1017.5
13 19.05 С 3 н/о н/о +21.2 +9.8 48 +23 +23 комфорт 1022.2 1017.6
14 19.05 С 3 н/о 5/0 2000 м
[]
+20.3 +9.8 51 +22 +22 комфорт 1022.2 1017.6 +30.4
15 19.05 С 5 н/о н/о +19.3 +9.8 54 +20 +20 1021.9 1017.3
16 19.05 С 4 н/о н/о +18.0 +9.4 57 +18 +18 1021.7 1017.1
17 19.05 С 4 н/о н/о +17.8 +9.9 60 +18 +18 1021.6 1017.0
18 19.05 С 4 н/о н/о +17.0 +10.1 64 +17 +17 1021.3 1016.7
19 19.05 С 4 н/о н/о +17.1 +10.5 65 +17 +17 1021.4 1016.8
20 19.05 СВ 3 н/о н/о +15.5 +9.6 68 +15 +15 1021.5 1016.9
21 19.05 С 3 н/о н/о +15.5 +9.2 66 +15 +15 1022.2 1017.6
22 19.05 СВ 4 н/о н/о +16.4 +9.3 63 +16 +16 1022.7 1018.1
23 19.05 С 4 н/о н/о +19.8 +9.7 52 +21 +21 комфорт 1023.3 1018.7
00 20.05 СВ 5 н/о н/о +23.6 +10.6 44 +25 +25 комфорт 1023.4 1018.8
01 20.05 С 6 н/о н/о +26.6 +10.3 36 +27 +27 жарко 1023.1 1018.5
02 20.05 С 5 н/о н/о +27.7 +9.0 31 +28 +28 жарко 1022.6 1018.0 +14.9
03 20.05 С 4 н/о н/о +28.3 +8.6 29 +28 +28 жарко 1021.6 1017.0
04 20.05 С 3 н/о н/о +28.6 +8.3 28 +28 +28 жарко 1021.0 1016.4
05 20.05 СВ 2 н/о н/о +29.0 +8.7 28 +29 +29 жарко 1020.5 1015.9
06 20.05 штиль 0 н/о н/о +29.5 +8.5 27 +29 +29 жарко 1020.3 1015.7
07 20.05 С 2 н/о н/о +28.4 +8.1 28 +28 +28 жарко 1020.4 1015.8
08 20.05 В 3 н/о н/о +26.2 +8.2 32 +26 +26 жарко 1020.8 1016.2
09 20.05 В 3 н/о н/о +23.7 +7.3 35 +24 +24 комфорт 1021.3 1016.7
10 20.05 В 3 н/о н/о +22.1 +6.7 37 +23 +23 комфорт 1021.8 1017.2
11 20.05 В 3 н/о н/о +21.1 +7.0 40 +22 +22 комфорт 1022.3 1017.7
12 20.05 В 4 н/о н/о +20.8 +7.1 41 +22 +22 комфорт 1022.6 1018.0
13 20.05 СВ 3 н/о н/о +19.6 +7.0 44 +21 +21 комфорт 1022.6 1018.0
14 20.05 СВ 3 н/о н/о +19.3 +6.8 44 +20 +20 1022.3 1017.7 +29.8
15 20.05 СВ 3 н/о н/о +18.5 +6.7 46 +19 +19 1022.1 1017.5
16 20.05 СВ 3 н/о н/о +17.5 +5.8 46 +18 +18 1022.2 1017.6
17 20.05 СВ 4 н/о н/о +17.0 +6.2 49 +17 +17 1021.9 1017.3
18 20.05 С 3 н/о н/о +15.8 +5.7 51 +16 +16 1021.8 1017.2
19 20.05 С 4 н/о н/о +15.7 +6.7 55 +15 +15 1022.2 1017.6
20 20.05 СВ 3 н/о н/о +12.9 +4.3 56 +12 +12 1022.3 1017.7
21 20.05 СВ 4 н/о н/о +13.6 +6.0 60 +12 +12 1022.8 1018.2
22 20.05 СВ 4 н/о н/о +15.5 +6.5 55 +15 +15 1023.4 1018.8
23 20.05 СВ 4 н/о н/о +20.2 +7.6 44 +21 +21 комфорт 1023.7 1019.1
00 21.05 СВ 6 н/о н/о +24.4 +7.1 33 +25 +25 комфорт 1024.0 1019.4
01 21.05 СВ 7 н/о н/о +26.8 +7.8 30 +27 +27 жарко 1023.9 1019.3
02 21.05 СВ 5 н/о н/о +27.9 +7.7 28 +27 +27 жарко 1023.3 1018.7 +12.9
03 21.05 В 4 н/о н/о +28.2 +7.4 27 +28 +28 жарко 1022.5 1017.9
04 21.05 СВ 4 н/о н/о +28.8 +6.8 25 +28 +28 жарко 1021.6 1017.0
05 21.05 В 4 н/о н/о +28.7 +6.1 24 +28 +28 жарко 1021.1 1016.5
06 21.05 В 5 н/о н/о +28.8 +5.6 23 +28 +28 жарко 1021.3 1016.7
07 21.05 В 4 н/о н/о +28.0 +6.2 25 +27 +27 жарко 1021.6 1017.0
08 21.05 В 3 н/о н/о +26.0 +5.6 27 +25 +25 комфорт 1022.1 1017.5
09 21.05 ЮВ 4 н/о н/о +25.1 +5.8 29 +25 +25 комфорт 1022.6 1018.0
10 21.05 ЮВ 3 н/о н/о +23.1 +5.5 32 +23 +23 комфорт 1023.1 1018.5
11 21.05 В 3 н/о н/о +21.6 +5.5 35 +22 +22 комфорт 1023.6 1019.0
12 21.05 В 3 н/о н/о +19.2 +4.2 37 +20 +20 1024.1 1019.5
13 21.05 В 2 н/о н/о +19.0 +5.1 40 +20 +20 1024.3 1019.7
14 21.05 В 2 н/о н/о +18.3 +5.5 43 +19 +19 1024.3 1019.7 +29.5
15 21.05 СВ 3 н/о н/о +18.0 +6.2 46 +18 +18 1024.1 1019.5
16 21.05 В 3 н/о н/о +16.7 +5.6 48 +17 +17 1024.3 1019.7
17 21.05 В 3 н/о н/о +15.9 +5.5 50 +16 +16 1024.1 1019.5
18 21.05 В 2 н/о н/о +15.2 +5.1 51 +15 +15 1024.1 1019.5
19 21.05 В 2 н/о н/о +14.4 +5.2 54 +14 +14 1024.1 1019.5
20 21.05 В 3 н/о н/о +14.4 +6.0 57 +14 +14 1024.7 1020.1
21 21.05 В 3 н/о н/о +13.9 +6.3 60 +13 +13 1025.3 1020.7
22 21.05 В 3 н/о н/о +15.0 +6.6 57 +15 +15 1025.9 1021.3
23 21.05 В 4 н/о н/о +18.6 +7.4 48 +19 +19 1026.5 1021.9
00 22.05 В 4 н/о н/о +23.3 +9.0 40 +25 +25 комфорт 1026.7 1022.1
01 22.05 СВ 4 н/о н/о +25.6 +9.0 35 +26 +26 жарко 1026.4 1021.8
02 22.05 СВ 5 н/о н/о +27.3 +8.7 31 +27 +27 жарко 1025.7 1021.1 +13.6
03 22.05 В 5 н/о н/о +28.2 +7.4 27 +28 +28 жарко 1024.8 1020.2
04 22.05 ЮВ 4 н/о н/о +28.3 +6.4 25 +27 +27 жарко 1023.9 1019.3
05 22.05 В 5 н/о н/о +28.8 +5.6 23 +28 +28 жарко 1023.4 1018.8
06 22.05 ЮВ 6 н/о н/о +28.4 +5.9 24 +27 +27 жарко 1023.4 1018.8
07 22.05 В 6 н/о н/о +27.8 +6.0 25 +27 +27 жарко 1023.4 1018.8
08 22.05 В 5 н/о н/о +25.9 +6.0 28 +25 +25 комфорт 1023.9 1019.3
09 22.05 В 3 н/о н/о +23.1 +5.5 32 +23 +23 комфорт 1024.4 1019.8
10 22.05 В 3 н/о н/о +21.5 +5.4 35 +22 +22 комфорт 1024.8 1020.2
11 22.05 В 4 н/о н/о +19.8 +4.7 37 +20 +20 1025.0 1020.4
12 22.05 В 4 н/о н/о +18.6 +5.1 41 +19 +19 1025.2 1020.6
13 22.05 В 4 н/о н/о +17.5 +5.1 44 +17 +17 1025.2 1020.6
14 22.05 В 3 н/о н/о +16.8 +5.4 47 +17 +17 1025.3 1020.7 +29.3
15 22.05 В 4 н/о н/о +17.2 +6.4 49 +17 +17 1025.0 1020.4
16 22.05 В 4 н/о н/о +16.1 +6.3 52 +15 +15 1024.5 1019.9
17 22.05 В 4 н/о н/о +15.1 +5.9 54 +14 +14 1024.5 1019.9
18 22.05 В 3 н/о н/о +15.0 +6.6 57 +14 +14 1024.2 1019.6
19 22.05 В 3 н/о н/о +14.5 +6.3 58 +14 +14 1023.8 1019.2
20 22.05 В 3 н/о н/о +13.6 +6.0 60 +13 +13 1024.5 1019.9
21 22.05 В 3 н/о н/о +13.9 +6.7 62 +13 +13 1025.3 1020.7
22 22.05 В 3 н/о н/о +15.7 +7.2 57 +15 +15 1026.1 1021.5
23 22.05 В 4 н/о н/о +18.7 +7.2 47 +19 +19 1026.6 1022.0
00 23.05 В 5 н/о н/о +22.5 +7.9 39 +24 +24 комфорт 1026.6 1022.0
01 23.05 В 6 н/о н/о +24.0 +8.0 36 +24 +24 комфорт 1026.1 1021.5
02 23.05 В 6 н/о н/о +26.9 +7.4 29 +27 +27 жарко 1025.4 1020.8 +13.4
03 23.05 СВ 5 н/о н/о +27.9 +6.1 25 +27 +27 жарко 1024.1 1019.5
04 23.05 В 5 н/о н/о +27.9 +5.5 24 +27 +27 жарко 1023.2 1018.6
05 23.05 В 5 н/о н/о +28.5 +5.4 23 +27 +27 жарко 1022.6 1018.0
06 23.05 В 4 н/о н/о +27.9 +5.5 24 +27 +27 жарко 1021.9 1017.3
07 23.05 В 5 н/о н/о +27.1 +6.0 26 +26 +26 жарко 1022.2 1017.6
08 23.05 В 4 н/о н/о +25.0 +4.7 27 +24 +24 комфорт 1022.2 1017.6
09 23.05 В 4 н/о н/о +23.0 +4.5 30 +23 +23 комфорт 1022.8 1018.2
10 23.05 ЮВ 4 н/о н/о +23.2 +4.7 30 +23 +23 комфорт 1023.4 1018.8
11 23.05 ЮВ 4 н/о н/о +20.8 +4.4 34 +22 +22 комфорт 1023.6 1019.0
12 23.05 СВ 3 н/о н/о +18.3 +3.8 38 +19 +19 1023.9 1019.3

 

Местоположение метеостанции Мумба (Южная Австралия, Австралия): широта -28.10 долгота 140.20 высота над уровнем моря 38 м.

В архиве по умолчанию представлена погода в Мумбе за последнюю неделю. Архивные данные за месяц целиком и за предыдущие месяцы, начиная с января 2011 года, Вы можете получить, выбрав интересующий диапазон дат из раскрывающегося списка и нажав кнопку "Ввод!".


*Определитесь, кто Вы:
робот инопланетянин человек

Внимание! Время в таблицах - всемирное. Для получения местного времени необходимо прибавить поправку, которая равна 9.5 ч.

Смотрите также архив погоды в соседних городах и на ближайших метеорологических станциях:

Погода в Месторождении Ballera (Квинсленд, Австралия) (176 км)
Погода в Тибообере (Новый Южный Уэльс, Австралия) (235 км)
Погода в Бердсвилле (Квинсленд, Австралия) (259 км)
Погода в Марри (Южная Австралия, Австралия) (271 км)
Погода в Ли-Крике (Южная Австралия, Австралия) (327 км)
Погода в Таргоминде (Квинсленд, Австралия) (355 км)
Погода в Фоулерс Гэп (Новый Южный Уэльс, Австралия) (362 км)
Погода в Уафт Клифс (Новый Южный Уэльс, Австралия) (413 км)
Погода в Олимпик Дэм (Южная Австралия, Австралия) (417 км)
Погода в Брокен-Хилл аэропорту (Новый Южный Уэльс, Австралия) (450 км)

Пояснения к столбцам:

Ветер - указаны скорость ветра в м/с - средняя за 10 мин, порывы в срок и между сроками (в фигурных скобках) и направление, откуда дует ветер: С - северный, СВ - северо-восточный, В - восточный, ЮВ - юго-восточный, Ю - южный, ЮЗ - юго-западный, З - западный, СЗ - северо-западный.
Видимость - горизонтальная дальность видимости в метрах или километрах. При видимости от 1 до 10 км при отсутствии осадков обычно наблюдается дымка, при ухудшении видимости до 1 км и менее - туман. В сухую погоду видимость может ухудшаться дымом, пылью или мглою.
Явления - указаны атмосферные явления, наблюдавшиеся в срок или в последний час перед сроком; фигурными скобками обозначены явления, наблюдавшиеся между сроками (за 1-3 часа до срока); квадратными скобками обозначены град или гололедные отложения с указанием их диаметра в мм.
Облачность - указаны через наклонную черту общая и нижняя облачность в баллах и высота нижней границы облаков в метрах; квадратными скобками обозначены формы облаков: Ci - перистые, Cs - перисто-слоистые, Cc - перисто-кучевые, Ac - высококучевые, As - высокослоистые, Sc - слоисто-кучевые, Ns - слоисто-дождевые, Cu - кучевые, Cb - кучево-дождевые. Подробнее классификацию облаков см. в Атласе облаков (PDF).
T - Температура воздуха - температура, измеренная на высоте 2 м над землей.
Td - Температура точки росы - температура, при понижении до которой содержащийся в воздухе водяной пар достигнет насыщения.
f - Относительная влажность воздуха - влажноcть воздуха, измеренная на высоте 2 м над землей.
Te - Эффективная температура - температура, которую ощущает одетый по сезону человек в тени. Характеристика душности погоды. При расчете учитывается влияние влажности воздуха и скорости ветра на теплоощущения человека.
Tes - Эффективная температура на солнце - температура, которую ощущает человек, с поправкой на солнечный нагрев. Характеристика знойности погоды. Зависит от высоты солнца над горизонтом, облачности и скорости ветра. Ночью, в пасмурную погоду, а также при ветре 12 м/с и более поправка равна нулю.
P - Атмосферное давление - приведенное к уровню моря атмосферное давление.
Po - Атмосферное давление - измеренное на уровне метеостанции атмосферное давление.
Tmin - Минимальная температура - минимум температуры воздуха на высоте 2 м над землей.
Tmax - Максимальная температура - максимум температуры воздуха на высоте 2 м над землей.
R - Количество осадков - Количество выпавших осадков за период времени, мм. При наведении курсора мыши на число - период времени, за который выпало указанное количество осадков.
R24 - Количество осадков - Количество выпавших осадков за 24 часа, мм.
S - Снежный покров - Высота снежного покрова, см. При наведении курсора мыши на число - состояние снежного покрова и степень покрытия местности в баллах.